Welcome to the New NWS' Forecast!
Most changes are behind the scenes, but click here for differences you might notice.
Latest weather observations around

Jonesboro, Jonesboro Municipal Airport (KJBR)

Using English Units (Switch to International System of Units)
Date/ Time (CDT) Wind (mph) Vis. (mi) Weather Sky Cond. Temp (°F) Rel. Humidity Wind Chill (°F) Heat Index (°F) Pressure Precip. (in)
Air Dwpt 6 hour Altimeter (inHg) Sea level (inHg) 1 hr 3 hr 6 hr
Max Min
May 24 21:53 WNW 7 10 Clear CLR 58 50     75%     29.64 29.63      
May 24 20:53 WNW 7 10 Clear CLR 58 49     72%     29.62 29.62      
May 24 19:53 WNW 7 10 Clear CLR 59 49     69%     29.61 29.6      
May 24 18:53 W 13 10 Mostly Clear FEW110 64 50     60%     29.6 29.59 0   0
May 24 17:53 NW 3 10 Mostly Cloudy FEW050 BKN100 BKN120 61 54     78%     29.6 29.59 0    
May 24 17:11 Calm 10 Light Rain FEW036 BKN070 OVC085 60 54     80%     29.6   0    
May 24 16:53 NW 9 6 Thunderstorms and Rain SCT036 BKN049 OVC075 59 50     72%     29.61 29.6 0    
May 24 15:53 NW 7 10 Partly Cloudy FEW050 SCT070 SCT090 62 53     72%     29.61 29.6 0 0  
May 24 15:20 W 10 10 Mostly Cloudy SCT065 BKN090 BKN110 61 53     75%     29.61   0    
May 24 15:05 WSW 8 10 Mostly Cloudy BKN080 BKN095 BKN120 61 54     78%     29.61   0    
May 24 14:53 W 9 10 Cloudy SCT070 OVC080 59 53     81%     29.61 29.6 0    
May 24 14:48 W 7 10 Cloudy FEW050 SCT065 OVC080 59 52     77%     29.61   0    
May 24 14:33 WNW 10 10 Thunderstorms and Rain FEW030 SCT037 OVC060 57 51     81%     29.61   0    
May 24 14:24 NW 10 2 Thunderstorms and Rain FEW021 BKN038 OVC100 56 50     80%     29.61   0    
May 24 14:21 NNW 13 1.75 Heavy Rain FEW021 BKN036 OVC100 55 50     83%     29.61   0    
May 24 13:53 W 10 10 Mostly Cloudy FEW038 BKN100 67 49     52%     29.59 29.58      
May 24 12:53 WNW 9 10 Cloudy FEW036 BKN100 OVC110 67 50     55%     29.6 29.59      
May 24 11:53 NW 10 10 Mostly Cloudy FEW035 SCT080 BKN110 68 51     55%     29.6 29.59      
May 24 08:53 NNW 7 10 Clear CLR 62 55     78%     29.6 29.59      
May 24 07:53 NW 9 10 Clear CLR 59 55     87%     29.6 29.59      
May 24 05:53 WNW 5 10 Clear CLR 59 57     93%     29.59 29.58      
May 24 04:53 NW 3 10 Clear CLR 60 58     93%     29.6 29.59 0    
May 24 03:53 Calm 10 Light Rain OVC080 60 58     93%     29.62 29.62 0 0  
May 24 02:53 NW 5 10 Light Rain FEW055 OVC080 61 59     93%     29.64 29.63 0    
May 24 01:53 WNW 5 10 Cloudy OVC075 61 59     93%     29.66 29.65 0    
May 23 23:53 NNW 5 10 Light Rain OVC090 61 59     93%     29.68 29.67 0    
May 23 22:53 NW 3 10 Cloudy OVC100 61 59     93%     29.69 29.68 0    
May 23 20:53 NW 8 8 Rain FEW043 BKN060 OVC085 61 58     90%     29.72 29.71 0    
May 23 20:05 WNW 5 10 Light Rain FEW070 OVC090 62 59     90%     29.71   0    
May 23 19:53 SW 6 8 Thunderstorms and Rain OVC085 62 59     90%     29.71 29.7 0    
May 23 19:27 W 6 10 Light Rain FEW055 OVC075 62 59     90%     29.7   0    
May 23 18:53 W 6 10 Thunderstorms and Rain OVC085 63 57     81%     29.7 29.69 0   0
May 23 18:45 WNW 8 8 Rain FEW039 FEW050 OVC085 63 57     81%     29.7   0    
May 23 18:05 Calm 10 Mostly Cloudy SCT050 BKN060 71 59     66%   71 29.67        
May 23 17:53 SW 3 10 Mostly Clear FEW055 72 59     64%   72 29.68 29.67      
May 23 17:50 SSW 5 10 Mostly Clear FEW060 72 57     60%   71 29.68        
May 23 16:53 SSE 8 10 Clear CLR 73 58     59%   73 29.69 29.68      
May 23 16:16 3 10 Mostly Clear FEW002 74 58     57%   74 29.7        
May 23 15:53 Calm 10 Partly Cloudy FEW065 SCT085 73 57     57%   73 29.71 29.7 0 0  
May 23 14:53 NW 13 10 Light Rain SCT040 BKN050 OVC060 69 59     70%     29.73 29.73 0    
May 23 14:37 NW 8 10 Mostly Cloudy SCT043 BKN055 BKN080 75 56     52%   75 29.73        
May 23 13:53 NNW 8 10 Partly Cloudy SCT085 78 54     43%   78 29.73 29.72      
May 23 12:53 7 10 Mostly Clear FEW100 76 51     42%   75 29.75 29.75      
May 23 11:53 WNW 6 10 Clear CLR 75 48     38%   74 29.76 29.75      
May 23 10:53 W 11 10 Clear CLR 75 50     41%   74 29.78 29.77      
May 23 09:53 5 10 Clear CLR 70 53     55%     29.79 29.78      
May 23 08:53 NW 6 10 Partly Cloudy SCT095 69 52     54%     29.8 29.8      
May 23 07:53 W 6 10 Clear   65 56     73%     29.81 29.8      
May 23 06:53 Calm 10 Cloudy OVC090 61 58     90%     29.82 29.81      
May 23 05:53 Calm 10 Cloudy OVC110 57 54     89%     29.82 29.81      
May 23 04:53 Calm 10 Mostly Cloudy BKN110 56 54     93%     29.83 29.82      
May 23 03:53 Calm 10 Partly Cloudy SCT110 57 54     89%     29.84 29.83      
May 23 02:53 W 3 10 Cloudy OVC100 59 56     90%     29.85 29.85      
May 23 01:53 Calm 10 Mostly Cloudy BKN100 57 55     93%     29.87 29.86      
May 23 00:53 Calm 10 Clear CLR 58 55     90%     29.9 29.89      
May 22 23:53 Calm 10 Mostly Cloudy BKN110 59 55     87%     29.92 29.92      
May 22 22:53 Calm 10 Clear CLR 61 56     83%     29.92 29.92      
May 22 21:53 NW 3 10 Mostly Clear FEW110 62 56     80%     29.94 29.94      
May 22 20:53 Calm 10 Mostly Clear FEW120 65 57     76%     29.95 29.94      
May 22 19:53 S 3 10 Mostly Cloudy BKN120 69 51     53%     29.96 29.95      
May 22 18:53 S 7 10 Clear CLR 71 51     49%   70 29.96 29.96      
May 22 17:53 NE 3 10 Clear CLR 73 48     41%   72 29.96 29.96      
May 22 16:53 ESE 5 10 Clear CLR 73 46     38%   72 29.98 29.97      
May 22 15:53 E 7 10 Clear CLR 74 45     36%   73 30 29.99      
May 22 14:53 3 10 Clear CLR 73 44     35%   72 30.03 30.02      
May 22 13:53 ESE 10 10 Clear CLR 74 45     36%   73 30.07 30.06      
May 22 12:53 ENE 9 10 Clear CLR 73 46     38%   72 30.08 30.08      
May 22 11:53 E 11 10 Clear CLR 71 48     44%   70 30.1 30.1      
May 22 10:53 E 9 10 Clear CLR 69 48     47%     30.13 30.12      
May 22 09:53 E 10 10 Clear CLR 67 49     52%     30.15 30.14      
May 22 08:53 E 8 10 Clear CLR 63 52     67%     30.16 30.15      
May 22 06:53 NE 6 10 Clear CLR 58 50     75%     30.13 30.13      
May 22 05:53 NNE 6 10 Clear CLR 56 50     80%     30.14 30.13      
May 22 04:53 N 5 10 Clear CLR 55 51     86%     30.13 30.12      
May 22 03:53 NNE 6 10 Clear CLR 57 49     74%     30.13 30.12      
May 22 02:53 N 6 10 Clear CLR 60 47     62%     30.13 30.11      
May 22 01:53 N 6 10 Clear CLR 60 50     69%     30.12 30.11      
May 22 00:53 N 8 10 Clear CLR 62 50     65%     30.12 30.11      
May 21 23:53 NNW 3 10 Clear CLR 62 51     67%     30.13 30.12      
May 21 22:53 NNW 5 10 Clear CLR 62 51     67%     30.13 30.12      
May 21 21:53 NNW 3 10 Clear CLR 64 51     63%     30.12 30.11      
May 21 20:53 NNW 3 10 Clear CLR 66 51     59%     30.1 30.09      
May 21 19:53 Calm 10 Clear CLR 69 51     53%     30.1 30.09      
May 21 18:53 Calm 10 Clear CLR 74 50     43%   73 30.09 30.09      
May 21 17:53 WNW 9 10 Clear CLR 76 50     40%   75 30.07 30.06      
May 21 16:53 NW 8 10 Clear CLR 74 52     46%   73 30.05 30.04      
May 21 15:53 W 15 10 Clear CLR 76 53     45%   75 30.07 30.06      
May 21 14:53 NW 10 10 Clear CLR 78 53     42%   78 30.08 30.07      
May 21 13:53 W 11 10 Clear CLR 77 54     45%   77 30.09 30.08      
May 21 12:53 NW 9 10 Clear CLR 76 53     45%   75 30.1 30.09      
May 21 11:53 W 8 10 Clear CLR 75 51     43%   74 30.11 30.1      
May 21 10:53 WNW 9 10 Clear CLR 73 49     43%   72 30.11 30.1      
May 21 09:53 NW 7 10 Clear CLR 72 50     46%   71 30.1 30.09      
May 21 08:53 NW 8 10 Clear CLR 67 51     57%     30.1 30.09      
May 21 07:53 5 10 Clear CLR 64 57     78%     30.09 30.08      
May 21 06:53 NW 5 10 Mostly Clear FEW037 64 59     84%     30.08 30.07      
May 21 05:53 WNW 8 10 Clear CLR 64 60     87%     30.05 30.04      
May 21 04:53 NW 7 10 Clear CLR 65 60     84%     30.03 30.02      
May 21 03:53 NW 5 10 Mostly Clear FEW100 66 62     87%     30.02 30.01      
May 21 02:53 WNW 8 10 Clear CLR 68 63     84%     29.99 29.98      
May 21 01:53 WNW 8 10 Mostly Clear FEW012 70 66     87%     29.98 29.98      
May 21 01:41 W 10 10 Mostly Clear FEW014 70 67     90%     29.99        
May 21 01:34 W 9 10 Mostly Cloudy BKN014 71 67     87%   72 29.98        
May 21 01:19 WSW 8 10 Mostly Cloudy BKN016 BKN023 71 67     87%   72 29.98        
May 21 00:53 WSW 7 10 Clear CLR 70 67     90%     29.99 29.98      
May 20 23:53 SW 6 10 Cloudy OVC085 71 68     90%   72 29.97 29.96      
May 20 22:53 SW 7 10 Clear CLR 70 67     90%     29.97 29.96      
May 20 21:53 S 3 10 Clear CLR 70 67     90%     29.96 29.95      
May 20 20:53 S 6 10 Clear CLR 72 68     87%   73 29.95 29.94      
May 20 19:53 SW 8 10 Clear CLR 74 68     82%   75 29.93 29.92      
May 20 18:53 SSW 8 10 Clear CLR 76 67     74%   77 29.94 29.93      
May 20 17:53 SSW 8 10 Clear CLR 76 67     74%   77 29.92 29.91      
May 20 16:53 S 6 10 Clear CLR 79 66     65%   80 29.88 29.86      
May 20 15:53 S 10 10 Clear CLR 79 66     65%   80 29.9 29.89      
May 20 13:53 SE 10 10 Mostly Clear FEW110 75 64     69%   75 29.91 29.9      
May 20 12:53 SSE 8 10 Mostly Cloudy FEW070 SCT090 BKN110 71 64     79%   72 29.98 29.97 0   0
May 20 11:53 SE 6 10 Mostly Cloudy FEW043 BKN080 BKN100 69 63     81%     30 29.99 0    
May 20 10:53 SE 7 10 Light Rain FEW036 OVC070 68 62     81%     30.01 30 0    
May 20 09:53 Calm 10 Light Rain BKN060 OVC070 66 63     90%     30.03 30.02 0 0  
May 20 08:53 NW 7 10 Cloudy OVC048 66 63     90%     30.01 30.01 0    
May 20 07:53 NE 3 10 Cloudy BKN050 OVC060 66 62     87%     29.99 29.98 0    
May 20 07:37 3 10 Light Rain OVC055 65 62     90%     29.99   0    
May 20 07:27 N 3 10 Cloudy FEW039 BKN055 OVC070 65 62     90%     29.98   0    
May 20 07:12 5 10 Light Rain FEW042 BKN065 OVC090 65 62     90%     29.98   0    
May 20 07:00 NNW 9 10 Light Rain BKN055 BKN080 OVC090 65 62     90%     29.97   0    
May 20 06:53 NW 9 10 Clear   65 62     90%     29.97 29.96      
May 20 06:26 WNW 13 10 Light Rain SCT045 OVC060 65 62     90%     29.96        
May 20 05:53 WNW 17 4 Thunderstorms and Heavy Rain and Fog/Mist SCT013 OVC042 65 62     90%     29.94 29.93 0    
May 20 05:32 NW 13 6 Thunderstorms and Rain and Fog/Mist SCT012 BKN018 OVC030 65 62     90%     29.93   0    
May 20 05:25 WNW 14 9 Thunderstorms and Rain BKN014 BKN023 OVC030 66 62     87%     29.94   0    
May 20 05:18 WNW 15 10 Light Rain FEW014 BKN024 OVC030 66 62     87%     29.94   0    
May 20 05:03   10 Light Rain BKN020 BKN070 OVC110 67 63     87%     29.92   0    
May 20 04:53 WSW 22 10 Cloudy and Windy FEW042 SCT070 OVC085 76 71     85%   77 29.91 29.9 0    
May 20 04:25 S 15 10 Cloudy FEW039 BKN075 OVC100 75 71     88%   76 29.86   0    
May 20 04:10 S 15 6 Light Rain and Fog/Mist SCT040 SCT048 BKN070 75 71     88%   76 29.85   0    
May 20 03:53 S 14 10 Partly Cloudy FEW043 SCT065 75 71     88%   76 29.85 29.83      
May 20 02:53 S 9 10 Mostly Clear FEW050 74 71     91%   75 29.85 29.83      
May 20 01:53 SE 7 10 Clear CLR 74 71     91%   75 29.86 29.85      
May 20 00:53 E 6 10 Mostly Cloudy BKN070 74 71     91%   75 29.9 29.89     0
May 19 23:53 Calm 10 Mostly Cloudy BKN060 74 71     91%   75 29.92 29.91      
May 19 22:53 ENE 6 10 Clear CLR 75 72     90%   76 29.92 29.9      
May 19 21:53 NE 6 10 Mostly Cloudy BKN060 BKN100 75 72     90%   76 29.91 29.9   0  
May 19 20:53 NE 6 10 Clear   74 72     94%   75 29.89 29.88      
May 19 19:53 ESE 5 10 Clear CLR 77 71     82%   78 29.89 29.88 0    
May 19 18:53 NNE 5 10 Mostly Clear FEW110 75 73     94%   77 29.92 29.91 0   0
May 19 18:19 S 6 10 Light Rain BKN110 75 72     90%   76 29.91   0    
May 19 17:53 S 13 7 Thunderstorms and Rain FEW038 FEW065 OVC100 76 72     88%   77 29.92 29.91 0    
May 19 17:28   10 Thunderstorms SCT037 BKN045 BKN100 82 69     65%   85 29.9        
May 19 17:12   10 Partly Cloudy FEW032 SCT045 SCT060 84 70     63%   88 29.9        
May 19 16:53 SE 14 10 Mostly Cloudy SCT047 BKN060 86 67     53%   89 29.88 29.87      
May 19 15:53 SSW 9 10 Clear CLR 89 67     48%   92 29.91 29.9      
May 19 14:53 SSW 9 10 Mostly Clear FEW050 88 67     50%   91 29.91 29.9      
May 19 13:53 SSW 9 10 Clear CLR 89 65     45%   91 29.93 29.92      
May 19 12:53 Calm 10 Mostly Cloudy FEW044 BKN060 BKN090 85 62     46%   86 29.95 29.94      
May 19 11:53 5 10 Clear CLR 84 62     48%   85 29.98 29.97      
May 19 10:53 Calm 10 Clear CLR 83 62     49%   84 29.99 29.98      
May 19 09:53 3 10 Mostly Cloudy BKN095 81 59     47%   81 29.97 29.96      
May 19 08:53 Calm 10 Cloudy BKN050 OVC070 77 64     64%   77 29.98 29.96      
May 19 07:53 Calm 10 Clear CLR 76 67     74%   77 29.97 29.95      
May 19 06:53 Calm 10 Clear CLR 74 60     62%   74 29.93 29.91      
May 19 05:53   10 Mostly Cloudy BKN049 73 67     81%   74 29.92 29.91      
May 19 04:53 WSW 13 10 Mostly Clear FEW055 75 68     79%   76 29.94 29.93      
May 19 03:53 S 3 10 Clear   72 66     82%   73 29.94 29.92      
May 19 02:53 S 8 10 Clear CLR 72 65     79%   73 29.92 29.9      
May 19 01:53 SSE 5 10 Mostly Clear FEW080 72 64     76%   72 29.9 29.88      
May 19 00:53 Calm 10 Clear CLR 71 64     79%   72 29.92 29.91      
May 18 23:53 S 3 10 Clear CLR 74 64     71%   74 29.9 29.89      
May 18 22:53 SSE 7 10 Clear CLR 75 65     71%   76 29.89 29.88      
May 18 21:53 SSE 7 10 Clear CLR 77 65     66%   78 29.87 29.86      
May 18 20:53 SSE 5 10 Clear CLR 79 63     58%   79 29.88 29.87      
May 18 19:53 S 6 10 Clear CLR 80 65     60%   82 29.85 29.84      
May 18 18:53 S 11 10 Clear CLR 84 65     53%   86 29.85 29.84      
May 18 17:53 S 16 10 Clear CLR 86 66     51%   88 29.87 29.86      
May 18 16:53 S 17 10 Clear CLR 86 67     53%   89 29.88 29.87      
May 18 15:53 SSW 15 10 Partly Cloudy FEW055 FEW090 SCT110 87 68     53%   91 29.9 29.89      
May 18 14:53 S 14 10 Mostly Cloudy BKN039 BKN047 83 68     61%   86 29.91 29.9      
May 18 13:53 S 14 10 Mostly Cloudy SCT028 BKN036 84 70     63%   88 29.92 29.91      
May 18 13:46 SSW 15 10 Mostly Cloudy BKN027 BKN036 82 69     65%   85 29.93        
May 18 13:06 S 17 10 Mostly Cloudy FEW024 SCT030 BKN035 82 69     65%   85 29.93        
May 18 12:53 S 15 10 Mostly Cloudy BKN026 BKN032 82 69     65%   85 29.93 29.92     0
May 18 11:53 SSW 11 10 Cloudy OVC026 78 68     71%   79 29.95 29.94 0    
May 18 10:53 SSW 15 10 Cloudy OVC024 77 68     74%   78 29.95 29.94      
May 18 10:18 SSW 14 10 Cloudy BKN023 OVC034 76 68     76%   77 29.95        
May 18 09:53 SSW 13 10 Cloudy OVC034 76 68     76%   77 29.95 29.94 0 0  
May 18 08:53 S 14 10 Cloudy FEW023 OVC034 76 67     74%   77 29.94 29.93      
May 18 07:53 S 15 10 Cloudy BKN055 OVC065 75 66     74%   76 29.92 29.91      
May 18 06:53 S 14 10 Cloudy OVC055 74 65     74%   74 29.91 29.9      
May 18 05:53 SSW 16 10 Cloudy OVC050 74 64     71%   74 29.89 29.88      
May 18 04:53 SSW 13 10 Mostly Cloudy BKN055 74 64     71%   74 29.87 29.86      
May 18 03:53 SSW 15 10 Cloudy SCT050 OVC110 75 64     69%   75 29.85 29.83      
May 18 02:53 SSW 13 10 Clear CLR 75 64     69%   75 29.84 29.83      
May 18 01:53 SSW 20 10 Partly Cloudy and Windy SCT055 77 64     64%   77 29.83 29.82      
May 18 00:53 S 9 10 Cloudy OVC050 75 67     76%   76 29.84 29.83      
May 17 23:53 S 8 10 Clear   74 67     79%   75 29.84 29.83      
May 17 22:53 S 11 10 Cloudy OVC055 75 65     71%   76 29.84 29.83      
May 17 21:53 S 8 10 Cloudy OVC060 73 65     76%   74 29.83 29.82      
May 17 20:53 S 11 10 Cloudy OVC060 74 64     71%   74 29.82 29.81      
May 17 19:53 SSW 20 10 Cloudy and Windy OVC060 77 62     60%   77 29.82 29.8      
May 17 18:53 S 20 10 Cloudy and Windy BKN065 OVC095 79 62     56%   79 29.79 29.78     0
May 17 18:49 S 20 10 Cloudy and Windy BKN060 OVC075 79 63     58%   79 29.79        
May 17 18:34 S 17 10 Cloudy OVC060 80 60     51%   81 29.8        
May 17 17:53 S 11 10 Cloudy OVC065 80 61     52%   81 29.79 29.78      
May 17 16:53 SSW 14 10 Mostly Cloudy BKN070 83 61     48%   83 29.78 29.77 0    
May 17 15:53 S 21 10 Mostly Cloudy and Windy BKN090 84 62     48%   85 29.76 29.75      
May 17 14:53 S 30 10 Partly Cloudy and Breezy SCT055 85 62     46%   86 29.78 29.77      
May 17 13:53 SSW 30 10 Clear and Breezy CLR 87 62     43%   88 29.79 29.78      
May 17 12:53 S 24 10 Clear and Windy CLR 84 63     49%   85 29.8 29.78      
May 17 11:53 S 21 10 Clear and Windy CLR 83 63     51%   84 29.82 29.81      
May 17 10:53 SSW 18 10 Clear CLR 81 64     56%   83 29.85 29.84      
May 17 09:53 SSW 21 10 Clear and Windy CLR 79 63     58%   79 29.86 29.85      
May 17 08:53 S 15 10 Clear CLR 74 63     69%   74 29.9 29.88      
May 17 07:53 SSW 10 10 Clear CLR 72 62     71%   72 29.91 29.9      
May 17 06:53 SSW 13 10 Clear CLR 72 61     68%   72 29.88 29.87      
May 17 05:53 S 15 10 Clear CLR 72 60     66%   72 29.82 29.81      
May 17 04:53 S 11 10 Clear CLR 71 61     70%   71 29.81 29.8      
May 17 03:53 S 9 10 Cloudy OVC050 71 62     73%   71 29.81 29.8      
May 17 02:53 S 9 10 Partly Cloudy SCT050 71 62     73%   71 29.79 29.78      
May 17 01:53 S 8 10 Partly Cloudy SCT055 72 62     71%   72 29.81 29.8      
May 17 00:53 S 8 10 Mostly Clear FEW060 72 63     73%   72 29.81 29.8      
May 16 23:53 S 6 10 Partly Cloudy SCT060 72 63     73%   72 29.82 29.81      
May 16 22:53 S 8 10 Clear CLR 73 64     73%   73 29.83 29.82      
May 16 21:53 S 7 10 Clear CLR 75 63     66%   75 29.84 29.83      
May 16 20:53 S 7 10 Partly Cloudy SCT060 77 64     64%   77 29.83 29.82      
May 16 19:53 S 7 10 Clear CLR 79 63     58%   79 29.84 29.83      
May 16 18:53 S 11 10 Clear CLR 82 63     53%   83 29.85 29.84      
May 16 17:53 S 13 10 Clear CLR 84 62     48%   85 29.86 29.85      
May 16 16:53 S 17 10 Mostly Clear FEW050 85 64     50%   86 29.88 29.87      
May 16 15:53 SSW 18 10 Mostly Clear FEW060 86 63     46%   87 29.89 29.88      
May 16 14:53 S 20 10 Mostly Clear and Windy FEW055 85 61     45%   85 29.91 29.91      
May 16 13:53 SSW 24 10 Mostly Clear and Windy FEW060 87 61     42%   87 29.93 29.92      
May 16 12:53 SW 20 10 Partly Cloudy and Windy SCT055 86 62     45%   87 29.95 29.94      
May 16 11:53 SSW 14 10 Mostly Clear FEW060 84 63     49%   85 29.97 29.96      
May 16 10:53 SW 13 10 Mostly Cloudy BKN060 81 63     54%   82 29.98 29.97      
May 16 09:53 SW 11 10 Cloudy OVC055 79 63     58%   79 29.98 29.97      
May 16 08:53 S 6 10 Clear CLR 74 65     74%   74 29.98 29.96      
May 16 07:53 S 5 10 Clear CLR 69 64     84%     29.97 29.96      
May 16 06:53 S 3 10 Clear CLR 64 61     90%     29.95 29.94      
May 16 05:53 Calm 10 Clear CLR 62 59     90%     29.94 29.93      
May 16 04:53 Calm 10 Clear CLR 61 59     93%     29.95 29.94      
May 16 03:53 E 3 10 Clear CLR 61 59     93%     29.94 29.93      
May 16 02:53 Calm 10 Clear CLR 61 59     93%     29.93 29.92      
May 16 01:53 Calm 10 Clear CLR 62 59     90%     29.93 29.92      
May 16 00:53 S 5 10 Clear CLR 67 60     79%     29.93 29.92      
May 15 23:53 SSE 6 10 Clear CLR 69 59     70%     29.93 29.92      
May 15 22:53 S 3 10 Clear CLR 69 58     68%     29.94 29.93      
May 15 21:53 SSW 6 10 Clear CLR 71 61     70%   71 29.94 29.93      
May 15 20:53 SSW 6 10 Clear CLR 73 62     68%   73 29.93 29.92      
May 15 19:53 SSW 6 10 Clear CLR 76 61     60%   76 29.93 29.92      
May 15 18:53 SSW 10 10 Clear   80 61     52%   81 29.93 29.92      
May 15 17:53 SW 8 10 Clear CLR 82 60     47%   82 29.94 29.93      
May 15 16:53 S 10 10 Clear CLR 82 59     46%   82 29.94 29.93      
May 15 15:53 SW 10 10 Clear CLR 84 61     46%   84 29.95 29.94      
May 15 14:53 S 8 10 Clear CLR 83 60     46%   83 29.96 29.96      
May 15 13:53 S 13 10 Mostly Clear FEW050 82 60     47%   82 29.99 29.98      
May 15 12:53 SW 13 10 Clear CLR 82 59     46%   82 30 29.99      
May 15 11:53 S 9 10 Clear CLR 80 59     49%   81 30 29.99      
May 15 10:53 SW 9 10 Clear CLR 80 59     49%   81 30 29.99      
May 15 09:53 SE 3 10 Clear CLR 74 61     64%   74 30.01 30      
May 15 08:53 S 5 10 Clear CLR 71 61     70%   71 30.01 30      
May 15 07:53 Calm 10 Clear CLR 66 59     78%     30 29.99      
May 15 06:53 Calm 10 Clear CLR 60 57     90%     30 29.99      
May 15 05:53 Calm 10 Clear CLR 56 55     97%     29.98 29.97      
May 15 04:53 Calm 10 Clear CLR 56 55     97%     29.96 29.96      
May 15 03:53 Calm 10 Clear CLR 57 55     93%     29.96 29.95      
May 15 02:53 Calm 10 Clear CLR 58 56     93%     29.96 29.95      
May 15 01:53 Calm 10 Clear CLR 59 57     93%     29.95 29.94      
May 14 23:53 Calm 10 Clear CLR 62 57     84%     29.95 29.94      
May 14 22:53 WSW 5 10 Clear CLR 67 56     68%     29.95 29.94      
May 14 21:53 SW 6 10 Clear CLR 66 58     75%     29.94 29.93      
May 14 20:53 WSW 5 10 Clear CLR 66 58     75%     29.92 29.91      
May 14 19:53 WSW 6 10 Clear CLR 72 57     59%   72 29.92 29.91      
May 14 18:53 SSW 8 10 Clear CLR 77 56     48%   77 29.91 29.91      
May 14 17:53 S 10 10 Clear CLR 79 52     39%   78 29.93 29.92      
May 14 16:53 S 8 10 Clear CLR 80 53     39%   80 29.93 29.92      
May 14 15:53 SSE 8 10 Clear CLR 80 55     42%   80 29.94 29.94      
May 14 14:53 SE 7 10 Clear CLR 79 54     42%   79 29.97 29.96      
May 14 13:53 SSE 9 10 Clear CLR 79 55     44%   79 29.98 29.97      
May 14 12:53 SE 7 10 Clear CLR 77 54     45%   77 30 30      
May 14 11:53   10 Clear CLR 77 54     45%   77 30.03 30.02      
May 14 10:53   10 Clear CLR 76 54     47%   75 30.03 30.02      
May 14 09:53 S 5 10 Clear CLR 74 55     52%   73 30.04 30.03      
May 14 08:53 SSE 3 10 Clear CLR 70 58     66%     30.03 30.02      
May 14 07:53 Calm 10 Clear CLR 64 60     87%     30.03 30.02      
May 14 06:53 Calm 10 Clear CLR 57 55     93%     30.01 30.01      
May 14 05:53 Calm 10 Clear CLR 53 52     96%     29.98 29.97      
May 14 04:53 Calm 10 Clear CLR 53 52     96%     29.95 29.94      
May 14 03:53 Calm 9 Clear CLR 54 53     97%     29.94 29.93      
May 14 02:53 Calm 10 Clear CLR 55 53     93%     29.94 29.93      
May 14 01:53 Calm 10 Clear CLR 57 55     93%     29.93 29.93      
May 14 00:53 Calm 10 Clear CLR 57 55     93%     29.94 29.93      
May 13 23:53 Calm 10 Clear CLR 57 55     93%     29.94 29.93      
May 13 22:53 Calm 10 Clear CLR 60 56     86%     29.93 29.92      
May 13 21:53 Calm 10 Clear CLR 60 57     90%     29.92 29.91      
May 13 20:53 Calm 10 Clear CLR 62 58     86%     29.91 29.91      
May 13 19:53 Calm 10 Clear CLR 67 58     73%     29.91 29.91      
May 13 18:53 ENE 7 10 Clear CLR 73 55     53%   73 29.91 29.91      
May 13 17:53 NE 8 10 Clear CLR 76 53     45%   75 29.92 29.91